Regional Weather Roundup
Issued by NWS

Home | Current Version | Previous Version | Text Only | Print | Product List | Glossary Off
Versions: 1 2 3 4 5 6 7 8 9 10 11 12 13 14 15 16 17 18 19 20 21 22 23 24 25 26 27 28 29 30 31 32 33 34 35 36 37 38 39 40 41 42 43 44 45 46 47 48 49 50

080
ASUS43 KMPX 220001
RWRMN
WEATHER ROUNDUP FOR MINNESOTA
NATIONAL WEATHER SERVICE TWIN CITIES/CHANHASSEN MN
600 PM CST TUE FEB 21 2017


NOTE: "FAIR" INDICATES FEW OR NO CLOUDS BELOW 12,000 FEET WITH NO
SIGNIFICANT WEATHER AND/OR OBSTRUCTIONS TO VISIBILITY. N/A MEANS
CURRENT SKY AND/OR WEATHER CONDITIONS ARE NOT AVAILABLE.

MNZ060>063-068>070-220100-
   Twin Cities Metro

CITY           SKY/WX    TMP DP  RH WIND       PRES   REMARKS
TWIN CITIES    MOCLDY    59  45  59 S8        29.70F
6HR MIN TEMP:  53; 6HR MAX TEMP:  62;

ST PAUL        CLOUDY    54  45  71 SE8       29.71S
CRYSTAL        PTCLDY    57  43  59 S6        29.69S
BLAINE         MOCLDY    57  46  67 S8        29.70S
LAKEVILLE      PTCLDY    54  46  76 S7        29.72F
EDEN PRAIRIE   CLOUDY    57  44  62 S9        29.69F
6HR MIN TEMP:  56; 6HR MAX TEMP:  62;

SOUTH ST PAUL  PTCLDY    57  44  61 S6        29.71F
LAKE ELMO      FAIR      54  45  71 S10       29.72F
$$
MNZ001>005-007-008-013>017-022>024-027-028-220100-
   Northwest Minnesota

CITY           SKY/WX    TMP DP  RH WIND       PRES   REMARKS
BEMIDJI        PTCLDY    43  34  70 CALM      29.64F
HALLOCK        CLOUDY    34  32  93 CALM      29.67S FOG
ROSEAU         CLOUDY    36  30  80 E3        29.67R
WARROAD        PTCLDY    32  28  86 N3        29.67S
THIEF RVR FALL CLOUDY    39  36  89 W6        29.67R
CROOKSTON      CLOUDY    36  36 100 NW6       29.68R FOG
FOSSTON        CLOUDY    37  36  93 S5        29.66S
DETROIT LAKES  PTCLDY    43  37  81 SW3       29.67F
MOORHEAD       PTCLDY    45  39  81 SW3       29.69R
PARK RAPIDS    CLOUDY    42  34  73 SW5       29.65F
MAHNOMEN       CLOUDY    40  38  93 W3        29.67R
$$
MNZ006-009>011-018-025>026-220100-
   North Central Minnesota

CITY           SKY/WX    TMP DP  RH WIND       PRES   REMARKS
BAUDETTE       PTCLDY    39  32  76 CALM      29.65S
FLAG ISLAND    CLOUDY    34  30  86 CALM      29.67S
INTL FALLS     PTCLDY    38  32  79 NE5       29.66R
6HR MIN TEMP:  37; 6HR MAX TEMP:  45;

WASKISH        CLEAR     37  36  93 CALM      29.65S
BIG FORK       PTCLDY    41  34  75 CALM      29.66R
LONGVILLE      CLOUDY    41  36  81 CALM      29.66S
GRAND RAPIDS   CLOUDY    41  35  79 S7        29.67F
CRANE LAKE     CLEAR     34  32  93 CALM      29.68S
ORR            PTCLDY    41  30  65 CALM      29.64R
COOK           MOCLDY    39  34  81 CALM      29.66S
WALKER         FAIR      43  35  74 SW3       29.66R
$$
MNZ012-019>021-037-220100-
   Northeast Minnesota

CITY           SKY/WX    TMP DP  RH WIND       PRES   REMARKS
DULUTH         CLOUDY    47  35  63 S3        29.68S
6HR MIN TEMP:  40; 6HR MAX TEMP:  50;

ELY            CLOUDY    45  30  57 S5        29.67R
HIBBING        CLOUDY    42  33  70 S3        29.66S
EVELETH        PTCLDY    42  31  64 S3        29.68S
DULUTH HARBOR  CLOUDY    36  34  93 CALM      29.71R
TWO HARBORS    CLOUDY    46  36  66 CALM      29.68S
SILVER BAY     CLOUDY    43  34  70 CALM      29.68S
GRAND MARAIS     N/A     36  33  89 NW5       29.71F
G MARAIS ARPRT CLOUDY    37  28  70 S3        29.71R
$$
MNZ029>031-032-039>041-046>048-054>057-064-220100-
   West Central Minnesota

CITY           SKY/WX    TMP DP  RH WIND       PRES   REMARKS
FERGUS FALLS   PTCLDY    46  43  87 CALM      29.70S
WHEATON        CLEAR     52  43  71 CALM      29.70R
MORRIS         CLOUDY    50  45  81 CALM      29.68S
ALEXANDRIA     PTCLDY    48  41  76 SW5       29.69S
ELBOW LAKE     MOCLDY    47  44  91 CALM      29.69R
WADENA         CLOUDY    43  37  81 CALM      29.67R
GLENWOOD       CLOUDY    48  43  81 W5        29.69S
APPLETON       PTCLDY    55  46  71 CALM      29.69R
BENSON         CLOUDY    52  43  71 CALM      29.71S
ORTONVILLE       N/A     55  43  62 CALM      29.69R
MADISON        CLEAR     59  45  58 W3        29.69R
WILLMAR        FAIR      54  48  82 W5        29.71R
$$
MNZ033>034-036-042>043-049>051-058-059-220100-
   Central Minnesota

CITY           SKY/WX    TMP DP  RH WIND       PRES   REMARKS
ST CLOUD       PTCLDY    50  44  80 SW5       29.69S
6HR MIN TEMP:  50; 6HR MAX TEMP:  56;

SAUK CENTRE    FAIR      48  44  85 CALM      29.69S
PAYNESVILLE    CLOUDY    51  43  73 SW3       29.70S
AITKIN         CLOUDY    45  36  70 CALM      29.66F
PINE RIVER     PTCLDY    45  37  76 CALM      29.71S
BRAINERD       CLOUDY    46  39  76 S7        29.67S
STAPLES          N/A     43  37  81 CALM      29.67F
LONG PRAIRIE   FAIR      46  41  81 SW3       29.69R
LITTLE FALLS   CLOUDY    46  39  76 SW3       29.69F
LITCHFIELD     CLOUDY    54  46  76 CALM      29.69F
BUFFALO        PTCLDY    55  44  68 CALM      29.70S
MAPLE LAKE     PTCLDY    53  47  78 CALM      29.70S
HUTCHINSON     CLOUDY    55  49  78 SW3       29.70F
$$
MNZ037-044-045-052-053-220100-
   East Central Minnesota

CITY           SKY/WX    TMP DP  RH WIND       PRES   REMARKS
PRINCETON      CLOUDY    54  45  71 CALM      29.69F
MORA           CLOUDY    50  41  71 CALM      29.70S
CAMBRIDGE      MOCLDY    55  43  62 CALM      29.68S
RUSH CITY      CLOUDY    52  43  71 S5        29.69F
MOOSE LAKE     CLOUDY    43  36  75 CALM      29.67S
HINCKLEY       FAIR      46  41  81 SE5       29.69S
CLOQUET        CLOUDY    45  36  70 CALM      29.68S
MCGREGOR       CLOUDY    43  36  75 CALM      29.68S
$$
MNZ071>073-080-081-089-090-097-098-220100-
   Southwest Minnesota

CITY           SKY/WX    TMP DP  RH WIND       PRES   REMARKS
MONTEVIDEO     CLEAR     57  45  62 CALM      29.70S
GRANITE FALLS  CLEAR     56  48  73 SW5       29.70F
CANBY          CLEAR     58  43  58 SW8       29.70S
MARSHALL       CLEAR     58  44  60 W6        29.69F
REDWOOD FALLS  CLEAR     57  43  59 W8        29.69S
OLIVIA         PTCLDY    54  48  82 SW6       29.69S
PIPESTONE      CLEAR     55  43  62 SW3       29.71S
WINDOM         CLEAR     57  46  67 S6        29.72S
WORTHINGTON    CLEAR     58  45  62 S9        29.72F
JACKSON        CLEAR     55  41  58 SW9       29.74R
TRACY          CLEAR     55  46  72 SW8       29.71S
SLAYTON        CLEAR     55  42  61 SW10      29.71F
$$
MNZ065>067-074>077-082>085-091>093-220100-
   South Central Minnesota

CITY           SKY/WX    TMP DP  RH WIND       PRES   REMARKS
MANKATO          N/A     57  47  69 S12       29.72F
NEW ULM        CLEAR     55  46  71 SW7       29.71R
ST JAMES       CLEAR     55  46  71 S7        29.72S
FAIRMONT       CLEAR     58  46  64 S17       29.73F
GLENCOE        PTCLDY    57  50  78 S3        29.69S
FARIBAULT      PTCLDY    55  46  71 S8        29.74F
OWATONNA       PTCLDY    54  45  71 S10       29.75S
WASECA         PTCLDY    54  46  76 S10       29.75F
ALBERT LEA     MOCLDY    55  46  71 S8        29.76S
$$
MNZ078>079-086>088-094>096-220100-
   Southeast Minnesota

CITY           SKY/WX    TMP DP  RH WIND       PRES   REMARKS
ROCHESTER      CLOUDY    50  43  77 S16       29.77S
6HR MIN TEMP:  50; 6HR MAX TEMP:  56;

RED WING       CLOUDY    55  41  58 SW5       29.75R
STANTON        CLOUDY    55  45  69 S9        29.73S
DODGE CENTER   CLOUDY    52  45  76 S13       29.76S
WINONA         CLOUDY    55  41  58 S6        29.78F
AUSTIN         PTCLDY    52  45  76 S10       29.77S
PRESTON        PTCLDY    50  42  72 S13       29.79F
$$
ABBREVIATIONS USED IN REMARKS
   TC - TEMPERATURES IN CELSIUS
  WCI - WIND CHILL INDEX
   HX - HEAT INDEX
  VSB - VISIBILITY
$$




USA.gov is the U.S. government's official web portal to all federal, state and local government web resources and services.